Location: Biharia
(46.4333°N, 22.8000°E)
Time: 17:16:31
(UTC+00:00)

FENGYUN 1C DEB - Pass Details

Date: 13 August 2022
Orbit: 796 x 915 km, 98.9° (Epoch: 24 September)

Event Time Altitude Azimuth Distance (km) Brightness Sun altitude
Rises 22:37:27 0° 21° (NNE) 3,442 ? -29.1°
Reaches altitude 10° 22:40:04 10° 30° (NNE) 2,481 ? -29.1°
Enters shadow 22:44:38 35° 85° (E) 1,315 ? -29.1°
